Back to catalog

STARLINK-1169

AliveCommunicationsVLEO
NORAD 45061·PAYLOAD·🇺🇸 United States

Launched Jan 29, 2020 from Cape Canaveral Space Force Station

Loading…

Next Passes (next 24 hours)

TLE

FreshSource: CelesTrak SupGP

Epoch: Sep 14, 2026, 13:13 UTC

1 45061C 20006T   26257.55118056  .00095942  00000+0  18187-2 0  2579
2 45061  53.1487 112.2715 0002508 173.9222 202.8106 15.47689398    16

Track STARLINK-1169 in real time with AllMySat

Download on the App Store